Location: S�deilles
(46.7500°N, 6.9329°E)
Time: 04:36:49
(UTC+00:00)

Cosmos 1898 Rocket - Pass Details

Date: 08 March 2021
Orbit: 753 x 784 km, 74.0° (Epoch: 22 April)

Event Time Altitude Azimuth Distance (km) Brightness Sun altitude
Rises 20:11:49 0° 334° (NNW) 3,234 7.5 -28.1°
Reaches altitude 10° 20:14:13 10° 330° (NNW) 2,309 6.6 -28.5°
Maximum altitude 20:19:19 55° 254° (WSW) 925 4.0 -29.2°
Enters shadow 20:19:33 54° 243° (WSW) 930 4.0 -29.3°
